Flag for India

Past Weather in Ulhasnagar, Maharashtra, India — Yesterday and Last 2 Weeks

Now
81 °F

Mostly cloudy.


Feels Like: 88 °F
Forecast: 80 / 77 °F
Wind: 14 mph from Southwest

Location: Mumbai / Santacruz
Current Time: Aug 13, 2020 at 6:02:45 am
Latest Report: Aug 13, 2020 at 5:00 am
Visibility: 2 mi
Pressure29.65 "Hg
Humidity: 94%
Dew Point: 79 °F
Location of UlhasnagarLocation

Past Weather in Ulhasnagar — Graph

°F

Ulhasnagar Temperature Yesterday

Maximum temperature yesterday: 84 °F (at 9:00 am)
Minimum temperature yesterday: 79 °F (at 2:00 am)
Average temperature yesterday: 81 °F

High & Low Weather Summary for the Past Weeks

 TemperatureHumidityPressure
High90 °F (Jul 31, 11:30 am)100% (Jul 29, 6:30 am)29.74 "Hg (Jul 29, 6:30 am)
Low75 °F (Aug 4, 6:00 am)66% (Jul 31, 1:30 pm)29.21 "Hg (Aug 5, 3:30 pm)
Average82 °F90%29.58 "Hg
* Reported Jul 29 4:30 am — Aug 13 5:00 am, Ulhasnagar. Weather by CustomWeather, © 2020

Note: Actual official high and low records may vary slightly from our data, if they occured in-between our weather recording intervals... More about our weather records

Ulhasnagar Weather History for the Previous 24 Hours

Scroll right to see more
 ConditionsComfort  
Time TempWeatherWind HumidityBarometerVisibility
5:00 am
Thu, Aug 13
81 °FMostly cloudy.14 mph94%29.65 "Hg1 mi
4:30 am82 °FMostly cloudy.14 mph89%29.65 "Hg1 mi
4:00 am82 °FPartly cloudy.14 mph89%29.65 "Hg1 mi
3:30 am82 °FLight rain. Mostly cloudy.14 mph89%29.65 "Hg1 mi
3:00 am82 °FLight rain. Mostly cloudy.10 mph89%29.68 "Hg1 mi
2:30 am82 °FPartly cloudy.14 mph89%29.68 "Hg2 mi
2:00 am82 °FMostly cloudy.14 mph89%29.68 "Hg2 mi
1:30 am82 °FMostly cloudy.14 mph89%29.71 "Hg2 mi
12:30 am82 °FMostly cloudy.14 mph89%29.71 "Hg2 mi
12:00 am82 °FMostly cloudy.14 mph89%29.74 "Hg2 mi
11:30 pm
Wed, Aug 12
82 °FMostly cloudy.14 mph89%29.74 "Hg2 mi
11:00 pm81 °FMostly cloudy.12 mph94%29.74 "Hg1 mi
10:30 pm81 °FMostly cloudy.14 mph89%29.74 "Hg1 mi
10:00 pm81 °FMostly cloudy.12 mph94%29.74 "Hg1 mi
9:30 pm81 °FMostly cloudy.8 mph94%29.74 "Hg1 mi
9:00 pm81 °FLight rain. Mostly cloudy.12 mph94%29.74 "Hg1 mi
8:30 pm81 °FLight rain. Mostly cloudy.15 mph94%29.74 "Hg1 mi
8:00 pm81 °FLight rain. Mostly cloudy.13 mph94%29.74 "Hg1 mi
7:30 pm81 °FLight rain. More clouds than sun.14 mph89%29.74 "Hg1 mi
7:00 pm82 °FLight rain. More clouds than sun.13 mph89%29.71 "Hg1 mi
6:30 pm82 °FLight rain. More clouds than sun.9 mph89%29.71 "Hg1 mi
6:00 pm81 °FRain. More clouds than sun.10 mph94%29.71 "Hg1 mi
5:30 pm81 °FLight rain. More clouds than sun.12 mph94%29.68 "Hg1 mi
5:00 pm81 °FRain. More clouds than sun.13 mph94%29.68 "Hg1 mi
4:30 pm82 °FScattered showers. More clouds than sun.12 mph94%29.68 "Hg1 mi
4:00 pm82 °FRain. More clouds than sun.12 mph94%29.68 "Hg1 mi
3:30 pm82 °FLight rain. More clouds than sun.12 mph94%29.68 "Hg1 mi
3:00 pm81 °FLight rain. More clouds than sun.9 mph100%29.71 "Hg1 mi
2:30 pm79 °FRain. More clouds than sun.10 mph94%29.71 "Hg1 mi
2:00 pm79 °FRain. More clouds than sun.14 mph94%29.71 "Hg1 mi
1:30 pm82 °FLight rain. More clouds than sun.14 mph94%29.71 "Hg1 mi
1:00 pm81 °FLight rain. More clouds than sun.9 mph100%29.71 "Hg1 mi
12:30 pm81 °FRain. More clouds than sun.13 mph94%29.74 "Hg1 mi
12:00 pm81 °FRain. More clouds than sun.21 mph89%29.74 "Hg1 mi
11:30 am84 °FScattered showers. More clouds than sun.10 mph84%29.74 "Hg2 mi
11:00 am82 °FDrizzle. More clouds than sun.8 mph89%29.74 "Hg2 mi
10:30 am82 °FDrizzle. More clouds than sun.14 mph94%29.74 "Hg2 mi
10:00 am82 °FMore clouds than sun.13 mph94%29.74 "Hg2 mi
9:30 am82 °FLight rain. More clouds than sun.14 mph89%29.74 "Hg2 mi
9:00 am84 °FDrizzle. More clouds than sun.12 mph84%29.74 "Hg2 mi
8:30 am82 °FLight rain. More clouds than sun.12 mph89%29.71 "Hg1 mi
8:00 am82 °FLight rain. More clouds than sun.12 mph89%29.71 "Hg1 mi
7:30 am82 °FRain. More clouds than sun.9 mph89%29.71 "Hg1 mi
7:00 am81 °FLight rain. More clouds than sun.8 mph94%29.68 "Hg1 mi
6:00 am79 °FRain. Mostly cloudy.9 mph100%29.68 "Hg1 mi
Weather by CustomWeather, © 2020

See weather overview